[[{"header":{"parameterUnit":"m.s-1","parameterCategory":1,"la1":30.2991,"la2":30.254,"lo1":-89.0895,"lo2":-89.0444,"dy":0.0017,"dx":0.0017,"nx":28,"ny":28,"refTime":"2025-09-08T21:00:00:Z","depth":0,"parameterNumber":2,"parameterNumberName":"U-component_of_WINDS"},"data":[0,0,0,0,0,0,0,0,0,0,0,0,0,0,0,0,0,0,0,0,0,0,0,0,0,0,0,0,0,0,0,0,0,0,0,0,0,0,0,0,0,0,0,0,0,0,0,0,0,0,0,0,0,0,0,0,0,0,-0.088,-0.088,0,-0.0862,-0.0861,-0.0861,-0.0858,-0.0858,-0.0858,-0.0858,-0.0838,-0.0837,-0.0837,0,0,0,0,0,0,0,0,0,0,0,0,0,-0.091,-0.0909,-0.088,-0.088,-0.0879,-0.0862,-0.0861,-0.0861,-0.0858,-0.0858,-0.0858,-0.0858,-0.0838,-0.0837,-0.0837,0,0,0,0,0,0,0,0,0,0,0,0,0,-0.0895,-0.0909,-0.088,-0.0876,-0.0875,-0.0862,-0.0861,-0.0861,-0.0858,-0.0858,-0.0858,-0.0858,-0.0839,-0.0838,-0.0837,-0.0826,0,0,-0.0833,-0.0833,0,0,0,0,0,0,0,0,-0.0896,-0.0894,-0.0876,-0.0876,-0.0875,-0.0862,-0.0865,-0.0849,-0.0857,-0.0864,-0.0858,-0.0858,-0.0846,-0.0844,-0.084,-0.0825,-0.0824,-0.0833,-0.0833,-0.0832,-0.0832,0,0,0,0,0,0,0,-0.0897,-0.0894,-0.0873,-0.0876,-0.0875,-0.0874,-0.0872,-0.0862,-0.0854,-0.0864,-0.0863,-0.0861,-0.0845,-0.0841,-0.084,-0.0824,-0.0833,-0.0833,-0.0832,-0.0832,-0.0797,-0.0797,0,0,0,0,0,0,-0.0899,-0.0895,-0.0873,-0.0872,-0.0886,-0.0873,-0.0871,-0.0866,-0.0854,-0.0852,-0.0861,-0.0861,-0.0843,-0.0841,-0.0839,-0.0825,-0.0832,-0.0831,-0.0831,-0.0798,-0.0797,-0.0797,0,0,0,0,0,0,-0.0899,-0.0897,-0.0874,-0.0884,-0.0881,-0.0872,-0.0867,-0.0866,-0.0861,-0.0852,-0.0851,-0.0858,-0.0843,-0.084,-0.0829,-0.0824,-0.0831,-0.083,-0.0798,-0.0798,-0.0797,-0.0798,0,0,0,0,0,0,-0.09,-0.0897,-0.0893,-0.0884,-0.088,-0.0865,-0.0867,-0.0865,-0.086,-0.086,-0.0849,-0.0848,-0.0843,-0.0831,-0.0828,-0.0823,-0.0829,-0.0799,-0.0798,-0.0797,-0.0798,-0.0797,-0.0797,0,0,0,0,0,-0.0901,-0.0894,-0.0893,-0.0891,-0.0876,-0.0865,-0.0863,-0.0858,-0.0859,-0.0855,-0.0849,-0.0848,-0.0825,-0.0829,-0.0827,-0.0821,-0.0799,-0.0798,-0.0797,-0.0798,-0.0797,-0.0797,0,0,0,0,0,0,-0.0904,-0.0893,-0.0892,-0.0881,-0.0874,-0.0864,-0.0859,-0.0857,-0.0849,-0.0849,-0.0843,-0.0841,-0.0829,-0.0824,-0.0829,-0.081,-0.0812,-0.0811,-0.0814,-0.0813,-0.0812,-0.0813,-0.0828,0,0,0,0,0,-0.0903,-0.0896,-0.0886,-0.0878,-0.0874,-0.0867,-0.0862,-0.0859,-0.0851,-0.0848,-0.0841,-0.0833,-0.0824,-0.0818,-0.0809,-0.0797,-0.0794,-0.0792,-0.0791,-0.0791,-0.079,-0.0782,-0.078,-0.0795,-0.0795,-0.0795,0,0,-0.0902,-0.0895,-0.089,-0.0878,-0.0872,-0.0864,-0.0865,-0.0856,-0.085,-0.0846,-0.0835,-0.083,-0.082,-0.0808,-0.0802,-0.0803,-0.0785,-0.079,-0.0789,-0.0789,-0.0781,-0.078,-0.0778,-0.0794,-0.0794,-0.0795,0,0,-0.0895,-0.0889,-0.0881,-0.0875,-0.0866,-0.0861,-0.0859,-0.0849,-0.0845,-0.0834,-0.0831,-0.0823,-0.0807,-0.08,-0.0795,-0.0784,-0.0782,-0.0781,-0.0778,-0.077,-0.0769,-0.0768,-0.0763,-0.0762,-0.078,-0.078,-0.078,0,-0.0894,-0.0882,-0.0877,-0.0869,-0.0863,-0.086,-0.0851,-0.0845,-0.0833,-0.0829,-0.083,-0.081,-0.0804,-0.0789,-0.0787,-0.0782,-0.0779,-0.0783,-0.077,-0.0768,-0.0767,-0.0763,-0.0762,-0.078,-0.078,-0.078,-0.078,0,-0.0881,-0.0873,-0.0868,-0.0856,-0.085,-0.0842,-0.0835,-0.0829,-0.0826,-0.082,-0.0808,-0.08,-0.0789,-0.0785,-0.0782,-0.077,-0.0771,-0.0771,-0.0773,-0.0766,-0.0762,-0.076,-0.078,-0.078,-0.078,-0.078,0,0,-0.0876,-0.0862,-0.086,-0.0854,-0.0843,-0.0836,-0.0827,-0.0817,-0.0811,-0.0803,-0.0794,-0.0781,-0.0781,-0.0774,-0.077,-0.0764,-0.0755,-0.0764,-0.0764,-0.0763,-0.074,-0.074,-0.0738,-0.0753,-0.0753,-0.0753,-0.0741,0,-0.0868,-0.0852,-0.0847,-0.0833,-0.0825,-0.0821,-0.0813,-0.0805,-0.0799,-0.0791,-0.0784,-0.0775,-0.0775,-0.0771,-0.0764,-0.0757,-0.075,-0.0758,-0.0745,-0.0744,-0.0748,-0.0736,-0.0737,-0.0726,-0.0739,-0.0739,-0.0739,0,-0.0856,-0.0848,-0.0833,-0.0823,-0.0819,-0.0812,-0.0801,-0.0793,-0.0783,-0.078,-0.0772,-0.0768,-0.0758,-0.076,-0.0745,-0.075,-0.0744,-0.074,-0.0739,-0.0738,-0.0741,-0.0734,-0.0722,-0.0721,-0.0736,-0.0736,-0.0737,0,-0.0853,-0.0838,-0.0828,-0.0823,-0.081,-0.0805,-0.0799,-0.079,-0.0783,-0.0774,-0.0769,-0.0759,-0.0753,-0.0744,-0.0737,-0.074,-0.0722,-0.0724,-0.0718,-0.0718,-0.0715,-0.0715,-0.0701,-0.0711,-0.0711,-0.0711,-0.0711,0,-0.0845,-0.0836,-0.0826,-0.082,-0.0809,-0.0803,-0.0793,-0.0786,-0.0778,-0.0769,-0.0765,-0.0757,-0.0748,-0.0739,-0.0733,-0.0721,-0.0718,-0.0714,-0.0713,-0.0715,-0.0715,-0.0711,-0.0711,-0.0711,-0.0711,-0.0711,-0.0711,0,-0.084,-0.0833,-0.0821,-0.081,-0.0807,-0.08,-0.0789,-0.0782,-0.0776,-0.0765,-0.0762,-0.0753,-0.0741,-0.0733,-0.0719,-0.0715,-0.0701,-0.07,-0.0705,-0.0704,-0.0698,-0.0699,-0.0681,-0.0678,-0.069,-0.069,-0.069,0,-0.0835,-0.0828,-0.0816,-0.081,-0.0804,-0.0795,-0.0789,-0.0781,-0.0775,-0.0762,-0.0756,-0.0745,-0.0735,-0.0717,-0.0708,-0.0696,-0.0695,-0.0689,-0.0693,-0.0694,-0.0694,-0.0694,-0.0693,-0.0689,-0.0689,-0.0688,-0.0688,0,-0.0826,-0.0823,-0.0814,-0.0804,-0.0796,-0.0787,-0.0778,-0.0774,-0.0765,-0.0757,-0.0746,-0.0738,-0.0723,-0.0711,-0.0698,-0.0691,-0.0688,-0.0687,-0.0685,-0.0687,-0.069,-0.0688,-0.0703,-0.0688,-0.0688,-0.0688,-0.0688,-0.0688,-0.0821,-0.0815,-0.0805,-0.0795,-0.0787,-0.0779,-0.0771,-0.0764,-0.0755,-0.0742,-0.0738,-0.0726,-0.0715,-0.0697,-0.069,-0.068,-0.068,-0.0677,-0.0677,-0.0676,-0.0676,-0.0691,-0.0678,-0.0678,-0.0678,-0.0678,-0.0678,0,-0.0812,-0.0806,-0.0796,-0.0784,-0.0776,-0.0774,-0.0763,-0.0756,-0.0746,-0.0736,-0.0726,-0.0712,-0.0701,-0.069,-0.0678,-0.0671,-0.067,-0.0668,-0.0669,-0.0667,-0.0676,-0.0679,-0.067,-0.067,-0.067,-0.067,-0.067,-0.067,-0.0807,-0.0795,-0.0791,-0.0775,-0.0768,-0.0756,-0.0751,-0.0742,-0.0735,-0.0719,-0.071,-0.0703,-0.0693,-0.0679,-0.0668,-0.0665,-0.0661,-0.066,-0.0657,-0.0666,-0.0667,-0.0667,-0.067,-0.0659,-0.0659,-0.0648,-0.0648,-0.0648]},{"header":{"parameterUnit":"m.s-1","parameterCategory":1,"la1":30.2991,"la2":30.254,"lo1":-89.0895,"lo2":-89.0444,"dy":0.0017,"dx":0.0017,"nx":28,"ny":28,"refTime":"2025-09-08T21:00:00:Z","depth":0,"parameterNumber":3,"parameterNumberName":"V-component_of_WINDS"},"data":[0,0,0,0,0,0,0,0,0,0,0,0,0,0,0,0,0,0,0,0,0,0,0,0,0,0,0,0,0,0,0,0,0,0,0,0,0,0,0,0,0,0,0,0,0,0,0,0,0,0,0,0,0,0,0,0,0,0,-2.2187,-2.2187,0,-2.2154,-2.2154,-2.2154,-2.215,-2.2151,-2.2151,-2.2152,-2.2113,-2.2112,-2.2111,0,0,0,0,0,0,0,0,0,0,0,0,0,-2.2246,-2.2245,-2.2187,-2.2187,-2.2187,-2.2154,-2.2154,-2.2153,-2.215,-2.2151,-2.2151,-2.2152,-2.2114,-2.2112,-2.211,0,0,0,0,0,0,0,0,0,0,0,0,0,-2.2217,-2.2244,-2.2187,-2.2181,-2.218,-2.2154,-2.2154,-2.2153,-2.215,-2.2151,-2.2151,-2.2152,-2.2114,-2.2112,-2.211,-2.2087,0,0,-2.2104,-2.2103,0,0,0,0,0,0,0,0,-2.2219,-2.2215,-2.2183,-2.2182,-2.2181,-2.2157,-2.216,-2.2131,-2.215,-2.2162,-2.2152,-2.2152,-2.2127,-2.2124,-2.2116,-2.2085,-2.2083,-2.2104,-2.2103,-2.2102,-2.2101,0,0,0,0,0,0,0,-2.2221,-2.2216,-2.2174,-2.2182,-2.2181,-2.2179,-2.2176,-2.2155,-2.2142,-2.2161,-2.216,-2.2157,-2.2127,-2.2118,-2.2116,-2.2083,-2.2104,-2.2102,-2.2101,-2.21,-2.2033,-2.2032,0,0,0,0,0,0,-2.2224,-2.2218,-2.2175,-2.2173,-2.2202,-2.2178,-2.2174,-2.2164,-2.2142,-2.2139,-2.2156,-2.2157,-2.2122,-2.2118,-2.2114,-2.2087,-2.2102,-2.21,-2.2099,-2.2034,-2.2033,-2.2032,0,0,0,0,0,0,-2.2226,-2.222,-2.2177,-2.2196,-2.219,-2.2176,-2.2165,-2.2163,-2.2155,-2.2139,-2.2136,-2.2151,-2.2122,-2.2117,-2.2095,-2.2086,-2.2099,-2.2097,-2.2034,-2.2033,-2.2033,-2.2031,0,0,0,0,0,0,-2.2227,-2.2221,-2.2212,-2.2195,-2.2189,-2.2158,-2.2165,-2.2162,-2.2152,-2.2152,-2.2133,-2.213,-2.2122,-2.2098,-2.2093,-2.2083,-2.2095,-2.2035,-2.2034,-2.2033,-2.2032,-2.2031,-2.2029,0,0,0,0,0,-2.2229,-2.2212,-2.2212,-2.2207,-2.2178,-2.2158,-2.2154,-2.2146,-2.2151,-2.2142,-2.2132,-2.213,-2.2088,-2.2095,-2.209,-2.2079,-2.2035,-2.2034,-2.2033,-2.2033,-2.2031,-2.2029,0,0,0,0,0,0,-2.2225,-2.2209,-2.2209,-2.2186,-2.2174,-2.2157,-2.2145,-2.2144,-2.2129,-2.213,-2.212,-2.2116,-2.2094,-2.2084,-2.2093,-2.2057,-2.2062,-2.2059,-2.2064,-2.2062,-2.2061,-2.2063,-2.2094,0,0,0,0,0,-2.2223,-2.2208,-2.2194,-2.2175,-2.2169,-2.2159,-2.2149,-2.2145,-2.2131,-2.2125,-2.2113,-2.2099,-2.2083,-2.2072,-2.2055,-2.2031,-2.2027,-2.2021,-2.202,-2.2019,-2.2017,-2.2005,-2.2003,-2.2028,-2.2028,-2.2028,0,0,-2.2215,-2.2204,-2.2196,-2.2174,-2.2164,-2.2149,-2.2154,-2.2137,-2.2126,-2.2122,-2.2101,-2.2092,-2.2075,-2.2053,-2.2042,-2.2044,-2.2009,-2.2017,-2.2017,-2.2015,-2.2004,-2.2001,-2.1999,-2.2027,-2.2027,-2.2028,0,0,-2.2194,-2.2184,-2.2169,-2.2159,-2.2145,-2.2138,-2.2134,-2.2119,-2.2113,-2.2093,-2.209,-2.2076,-2.2048,-2.2037,-2.2027,-2.2006,-2.2004,-2.2,-2.1993,-2.1981,-2.1979,-2.1978,-2.1971,-2.1969,-2.1998,-2.1998,-2.1998,0,-2.2186,-2.2165,-2.216,-2.2145,-2.2136,-2.2134,-2.2118,-2.2108,-2.2089,-2.2082,-2.2085,-2.2052,-2.204,-2.2015,-2.2011,-2.2003,-2.1998,-2.2002,-2.198,-2.1979,-2.1977,-2.197,-2.1968,-2.1998,-2.1998,-2.1998,-2.1998,0,-2.2157,-2.2142,-2.2131,-2.2115,-2.2104,-2.2088,-2.2081,-2.2071,-2.2068,-2.2062,-2.2041,-2.2028,-2.201,-2.2004,-2.2,-2.1979,-2.1981,-2.1983,-2.1987,-2.1974,-2.1968,-2.1965,-2.1998,-2.1998,-2.1998,-2.1998,0,0,-2.2131,-2.2114,-2.211,-2.2104,-2.2089,-2.2077,-2.2062,-2.2046,-2.2039,-2.2026,-2.2013,-2.199,-2.1992,-2.1982,-2.1977,-2.1967,-2.1953,-2.1969,-2.1969,-2.1967,-2.1931,-2.193,-2.1927,-2.1952,-2.1951,-2.1951,-2.1932,0,-2.2109,-2.2083,-2.208,-2.2056,-2.2043,-2.2043,-2.203,-2.2019,-2.2013,-2.2001,-2.1993,-2.1978,-2.1981,-2.1975,-2.1965,-2.1956,-2.1945,-2.1958,-2.1939,-2.1939,-2.1944,-2.1924,-2.1923,-2.1906,-2.193,-2.1929,-2.1929,0,-2.208,-2.2069,-2.2045,-2.2035,-2.2029,-2.2017,-2.2004,-2.1992,-2.1981,-2.1977,-2.1967,-2.1964,-2.1948,-2.1954,-2.1933,-2.1941,-2.1934,-2.1929,-2.1928,-2.1926,-2.1933,-2.1922,-2.19,-2.1898,-2.1925,-2.1925,-2.1925,0,-2.2065,-2.2044,-2.2028,-2.2022,-2.2009,-2.2001,-2.1995,-2.1984,-2.1976,-2.1964,-2.1958,-2.1944,-2.1936,-2.1925,-2.1919,-2.1924,-2.1898,-2.1903,-2.1894,-2.1895,-2.1888,-2.1889,-2.1866,-2.1883,-2.1883,-2.1883,-2.1883,0,-2.2041,-2.2027,-2.2021,-2.2011,-2.1996,-2.1992,-2.1976,-2.197,-2.1961,-2.1949,-2.1947,-2.1936,-2.1929,-2.1917,-2.1911,-2.1895,-2.1891,-2.1888,-2.1886,-2.1888,-2.1888,-2.1883,-2.1884,-2.1883,-2.1883,-2.1883,-2.1883,0,-2.2022,-2.2017,-2.2,-2.199,-2.1987,-2.1976,-2.1967,-2.1957,-2.1952,-2.1938,-2.1934,-2.1926,-2.1912,-2.1905,-2.1887,-2.1883,-2.1865,-2.1864,-2.187,-2.1869,-2.1861,-2.1862,-2.1834,-2.183,-2.185,-2.1849,-2.1849,0,-2.2007,-2.1997,-2.1986,-2.198,-2.1974,-2.1963,-2.1955,-2.1951,-2.1943,-2.1931,-2.1923,-2.1909,-2.1898,-2.1876,-2.1868,-2.1855,-2.1854,-2.1845,-2.1851,-2.1854,-2.1855,-2.1855,-2.1855,-2.1843,-2.1843,-2.1843,-2.1843,0,-2.1982,-2.1981,-2.1971,-2.1961,-2.1952,-2.1944,-2.1935,-2.1929,-2.1924,-2.1915,-2.1902,-2.1894,-2.1877,-2.1864,-2.1851,-2.1844,-2.1842,-2.1841,-2.1839,-2.184,-2.1844,-2.1843,-2.1867,-2.1842,-2.1842,-2.1842,-2.1842,-2.1842,-2.1965,-2.1956,-2.1949,-2.1938,-2.1932,-2.1924,-2.1916,-2.191,-2.19,-2.1887,-2.1885,-2.1872,-2.1862,-2.1845,-2.1838,-2.1827,-2.1828,-2.1824,-2.1823,-2.1822,-2.1823,-2.1846,-2.1824,-2.1824,-2.1824,-2.1824,-2.1824,0,-2.1941,-2.1936,-2.1927,-2.1916,-2.1908,-2.191,-2.1901,-2.1894,-2.1882,-2.1874,-2.1864,-2.185,-2.1838,-2.183,-2.1818,-2.1811,-2.181,-2.1808,-2.1808,-2.1807,-2.1821,-2.1825,-2.1809,-2.1809,-2.1809,-2.1809,-2.1809,-2.1809,-2.1927,-2.1913,-2.1912,-2.1895,-2.1891,-2.1879,-2.1874,-2.1867,-2.1861,-2.1846,-2.1837,-2.1832,-2.1824,-2.1812,-2.1801,-2.1799,-2.1795,-2.1793,-2.1791,-2.1804,-2.1806,-2.1807,-2.1811,-2.1792,-2.1792,-2.1777,-2.1777,-2.1777]}]]